Regional Weather Roundup
Issued by NWS Upton, NY

Current Version | Previous Version | Text Only | Print | Product List | Glossary On
Versions: 1 2 3 4 5 6 7 8 9 10 11 12 13 14 15 16 17 18 19 20 21 22 23 24 25 26 27 28 29 30 31 32 33 34 35 36 37 38 39 40 41 42 43 44 45 46 47 48 49 50
000 ASUS41 KOKX 201105 RWROKX Regional Weather Roundup National Weather Service New York NY 600 AM EST TUE FEB 20 2018 Note: "FAIR" indicates few or no clouds below 12,000 feet with no significant weather and/or obstructions to visibility. NYZ071-072-176-178-NJZ106-104-201200- New York City Metro Area CITY SKY/WX TMP DP RH WIND PRES REMARKS Central Park CLOUDY 50 49 96 SW7 30.32S FOG Bronx Bot Gard N/A 48 46 93 SW6 30.29S Bronx Lehman C N/A 48 48 100 W6 N/A LaGuardia Arpt CLOUDY 50 48 93 SW7 30.30R FOG Queens College N/A 50 50 100 W10 N/A Kennedy Intl DRZL/FOG 46 46 100 S7 30.32R VSB 1/8 Breezy Point N/A 43 N/A N/A SW2 N/A Brooklyn Coll N/A 50 48 93 SW8 N/A Staten Island N/A 46 46 100 S3 N/A Newark/Liberty FOG 48 48 100 SW6 30.30S VSB 1/4 Teterboro CLOUDY 49 47 93 CALM 30.30R FOG $$ NYZ177-179-078>081-201200- Long Island New York CITY SKY/WX TMP DP RH WIND PRES REMARKS Jones Beach N/A 43 N/A N/A SW5 N/A Wantagh N/A 45 45 100 S5 N/A Hempstead NOT AVBL Matinecock Pt N/A 46 N/A N/A SW9 N/A Farmingdale FOG 45 45 100 S6 30.31R VSB 1/4 MacArthur/ISP FOG 45 45 100 SW6 30.31R VSB 1/8 Shirley FOG 46 46 100 SW6 30.32R VSB 1/4 Mt Sinai Harb N/A N/A N/A N/A SW3 N/A Westhampton FOG 45 45 100 SW8 30.32S VSB 1/2 East Hampton FOG 46 46 98 SW6 30.31S VSB 3/4 Southold N/A 46 46 100 S5 N/A Montauk N/A 48 48 100 SW7 30.32R $$ NYZ052-065-067-201200- Hudson Valley CITY SKY/WX TMP DP RH WIND PRES REMARKS White Plains FOG 47 46 97 VRB6 30.28R VSB 1 Larchmont Harb N/A 45 N/A N/A S9 N/A Croton On Huds N/A 41 N/A N/A MISG N/A Somers N/A 45 43 93 SW5 N/A Brewster N/A 41 41 100 CALM N/A Newburgh FOG 41 41 100 CALM 30.29R VSB 1/2 Montgomery CLOUDY 40 39 97 SW7 30.27R Otisville N/A 41 41 100 W8 N/A Warwick N/A 36 36 100 E2 N/A Suffern N/A 43 43 100 SW3 N/A Poughkeepsie MOCLDY 42 40 92 S3 30.28R FOG Albany CLOUDY 44 41 89 S7 30.22R FOG $$ NJZ001-105-106-008-010-013-015-019>022-104-201200- New Jersey CITY SKY/WX TMP DP RH WIND PRES REMARKS Newark/Liberty FOG 48 48 100 SW6 30.30S VSB 1/4 Teterboro CLOUDY 49 47 93 CALM 30.30R FOG Caldwell CLOUDY 46 46 100 SW5 30.30S FOG Somerville FOG 40 40 100 CALM 30.30R VSB 1/4 Linden CLOUDY 48 48 99 CALM 30.31S FOG Perth Amboy N/A 46 N/A N/A W5 N/A Sussex FOG 41 41 100 SW7 30.29R VSB 3/4 Andover N/A 41 41 100 CALM 30.30R Trenton FOG 52 51 97 SW8 30.32R VSB 1 Millville CLOUDY 56 55 97 SW9 30.35R FOG Atlantic City CLOUDY 59 59 100 SW13G22 30.34 Wrightstown CLOUDY 55 55 99 SW12 30.29 FOG Toms River CLOUDY 57 57 100 SW12 30.32S Belmar CLOUDY 56 55 97 SW16 N/A $$ PAZ047>061-062-071-201200- Eastern Pennsylvania CITY SKY/WX TMP DP RH WIND PRES REMARKS Philadelphia FOG 50 50 100 SW9 30.34R VSB 1/2 Allentown FOG 38 36 92 CALM 30.31R VSB 1/4 Scranton CLOUDY 42 42 100 SW3 30.27R FOG $$ CTZ002-004>006-009-010-012-RIZ004-006-007-MAZ004-011-015-201200- Southern New England In CT CITY SKY/WX TMP DP RH WIND PRES REMARKS Bradley Intl CLOUDY 46 46 100 S12 30.25S Hartford CLOUDY 48 47 96 S6 30.27S FOG Danbury MOCLDY N/A N/A N/A W5 30.29R Wtrbury/Oxford FOG 45 45 100 SW3 30.28R VSB 1/4 Norwalk Harbor N/A 41 N/A N/A SW7 N/A Bridgeport FOG 42 42 100 SW5 30.30R VSB 1/4 Meriden FOG 46 46 100 SE6 30.28R VSB 3/4 New Haven FOG 42 42 100 S3 30.29S VSB 1/4 Chester FOG 48 48 100 SW9 30.28S VSB 1/4 Groton FOG 45 44 97 CALM 30.30R VSB 1/4 Willimantic CLOUDY 50 49 96 S6 30.28R In RI CITY SKY/WX TMP DP RH WIND PRES REMARKS Providence CLOUDY 52 51 97 SW14 30.28R Block Island LGT RAIN 45 45 100 SW12 30.32S VSB 3/4 Westerly FOG 47 47 100 SW6 30.31S VSB 1/4 In MA CITY SKY/WX TMP DP RH WIND PRES REMARKS Boston CLOUDY 52 50 93 SW12 30.24R Worcester CLOUDY 47 46 97 SW14 30.23R Westfield CLOUDY 45 45 100 S6 30.23S Provincetown LGT RAIN 44 43 96 SW14 30.26S VSB 1 Nantucket FOG 45 45 100 SW13 30.33R VSB 1/2 $$ ANZ330-335-338-340-345-350-353-355-201200- Coastal Marine Observations STATION/POSITION TIME SKY/WX TEMP WIND PRES VSBY WAVE AIR SEA DIR/SP/G HT/PER (UTC) (F) (DEG/KT/KT) (MB) (MI) (FT/S) NY Harb Entrance 1050 44 40 200/ 10/ 10 1026.2 3/ 5 20 S Fire Island 1050 45 42 220/ 12/ 12 1026.9 4/ 5 15 E Barnegat Li 1030 41 N/A 4/11 Hudson Canyon 1050 50 46 210/ 12/ 14 1027.8 4/10 Kings Point 1042 49 37 250/ 5/ 6 1027.0 Execution Rocks NOT AVBL Western LI Sound NOT AVBL Central LI Sound 1045 41 260/ 4/ 4 N/A 1 Robbins Reef 1042 48 260/ 5/ 6 1026.7 $$ >>>>>>>>>>>>>>>>>>>>>>>>>>>> KEY <<<<<<<<<<<<<<<<<<<<<<<<<<< > < > SKY/WX - Sky Condition/Present Weather < > TMP - Temperature in Fahrenheit < > DP - Dew Point in Fahrenheit < > RH - Relative Humidity in Percent < > WIND - Direction (from) and Speed in MPH < > PRES - Mean Sea Level Pressure (inches of Hg) < > WCI - Wind Chill Index < > VSB - Visibility in Miles < > HX - Heat Index < > TC - Temperature in Celsius < > VRB - Varibale Wind Direction < > < >>>>>>>>>>>>>>>>>>>>>>>>>>>> KEY <<<<<<<<<<<<<<<<<<<<<<<<<<<

USA.gov is the U.S. government's official web portal to all federal, state and local government web resources and services.